CZ-6A DEB

Satellite information

Favourite Embed

Satellite Type and Status

DEBRISIN ORBIT

Key statistics

Satellite CZ-6A DEB at a glance.

Uptime

969

Days in orbit

Revolutions

≈ 14.1

Per day

Orbit

SSO

Sun Synchronous Orbit

Inclination

98.7

Latest

Satellite identification and parameters

Extended collection of information and parameters for CZ-6A DEB.

Object identification

Identified? True

Debris? True

Object name: CZ-6A DEB

International designator: 2022-151JF

Object number (NORAD): 54503

Object ID (CCSDS): 54503

Country: PEOPLES REPUBLIC OF CHINA (PRC)

Current information (Y/N): Y

RCS size: SMALL

Orbital parameters

Period: 102.011 minutes

Inclination: 98.7377 deg

SMA: 7231.994 km

Apoapsis: 890.119 km

Periapsis: 817.599 km

RAAN: 177.7823 deg

Eccentricy: 0.0050138

Argument of periapsis: 242.2529 deg

Mean anomaly: 117.3553 deg

Mean motion: 14.1161315 rev/day

Mean motion (dot): 0.00000834 rev/day2

B* drag term: 0.00047713 1/REarth

Two-line elements (TLE)

Creation date: July 6, 2025, 6:05 p.m.

Reference frame: TEME

Reference center: EARTH

Epoch: July 6, 2025, 12:11 p.m. UTC

TLE line 0: 0 CZ-6A DEB

TLE line 1: 1 54503U 22151JF 25187.50822192 .00000834 00000-0 47713-3 0 9990

TLE line 2: 2 54503 98.7377 177.7823 0050138 242.2529 117.3553 14.11613150136062

Live tracking on map

Real-time ground track for satellite CZ-6A DEB.

In-orbit conjunctions

A list of the most updated potential collisions computed for object CZ-6A DEB.

Target Orbit TCA Probability of collision Miss distance Type
CZ-6A DEB LEO 2025-02-18 09:30:31 0.0001090618 137.0 (m) DEBRIS
CZ-6A DEB SSO 2024-09-24 23:48:13 0.0001210695 941.0 (m) DEBRIS

Associated space launch

Chinese satellite reported for atmospheric/ocean/environmental/spatial parameter research purposes, details TBD.

CZ-6A DEB was lifted into orbit during the mission ‘Long March 6A | Yunhai 3’, on board a Long March 6A space rocket.

The launch took place on Nov. 11, 2022, 10:52 p.m. from Launch Complex 9A.

For more information about the launch, click the button.

Launch to space Long March 6A | Yunhai 3
Long March 6A | Yunhai 3

Agency: N/A

Status: Launch Successful

Launch date: Nov. 11, 2022, 10:52 p.m. UTC

Rocket: Long March 6A

Launch pad: Launch Complex 9A

Location: Taiyuan Satellite Launch Center, People's Republic of China

...

Latest news about this satellite

There are no fresh news available about this satellite. Check back as we update our databases every day.


Newsletter sign-up

Weekly statistics, charts and insights to help you stay on top of the space industry.